Location: Unspecified
(47.9110°N, 14.3980°E)
Time: 05:30:53
(UTC+00:00)

Cosmos 468 Rocket - Pass Details

Date: 06 August 2020
Orbit: 744 x 780 km, 74.0° (Epoch: 23 September)

Event Time Altitude Azimuth Distance (km) Brightness Sun altitude
Rises 21:12:53 0° 337° (NNW) 3,276 8.8 -20.7°
Reaches altitude 10° 21:15:18 10° 339° (NNW) 2,343 7.7 -20.9°
Maximum altitude 21:20:38 81° 66° (ENE) 793 4.0 -21.4°
Enters shadow 21:22:07 49° 147° (SSE) 999 4.1 -21.5°
